Time,TemperatureF,DewpointF,PressureIn,WindDirection,WindDirectionDegrees,WindSpeedMPH,WindSpeedGustMPH,Humidity,HourlyPrecipIn,Conditions,Clouds,dailyrainin,SolarRadiationWatts/m^2,SoftwareType,DateUTC
2013-07-20 00:02:00,71.0,68.0,-100.00,NW,323,1.0,2.0,91,0.00,,,0.10,0.000000,,2013-07-20 04:02:00,
2013-07-20 00:44:00,71.0,69.0,-100.00,NNW,331,1.0,3.0,93,0.00,,,0.10,0.000000,,2013-07-20 04:44:00,
2013-07-20 00:52:00,71.0,69.0,-100.00,NNW,331,1.0,3.0,93,0.00,,,0.10,0.000000,,2013-07-20 04:52:00,
2013-07-20 01:02:00,71.0,69.0,-100.00,NNW,331,1.0,3.0,93,0.00,,,0.10,0.000000,,2013-07-20 05:02:00,
2013-07-20 01:32:00,71.0,69.0,-100.00,NNW,329,1.0,3.0,93,0.00,,,0.10,0.000000,,2013-07-20 05:32:00,
2013-07-20 01:52:00,71.0,69.0,-100.00,NNW,329,1.0,3.0,93,0.00,,,0.10,0.000000,,2013-07-20 05:52:00,
2013-07-20 02:01:00,71.0,69.0,-100.00,NNW,329,1.0,3.0,93,0.00,,,0.10,0.000000,,2013-07-20 06:01:00,
2013-07-20 02:32:00,69.0,68.0,-100.00,NNW,333,1.0,2.0,95,0.00,,,0.10,0.000000,,2013-07-20 06:32:00,
2013-07-20 02:43:00,69.0,68.0,-100.00,NNW,333,1.0,2.0,95,0.00,,,0.10,0.000000,,2013-07-20 06:43:00,
2013-07-20 02:52:00,69.0,68.0,-100.00,NNW,333,1.0,2.0,95,0.00,,,0.10,0.000000,,2013-07-20 06:52:00,
2013-07-20 03:01:00,69.0,68.0,-100.00,NNW,333,1.0,2.0,95,0.00,,,0.10,0.000000,,2013-07-20 07:01:00,
2013-07-20 03:33:00,70.0,68.0,-100.00,WSW,257,0.0,2.0,95,0.00,,,0.10,0.000000,,2013-07-20 07:33:00,
2013-07-20 03:44:00,70.0,68.0,-100.00,WSW,257,0.0,2.0,95,0.00,,,0.10,0.000000,,2013-07-20 07:44:00,
2013-07-20 03:54:00,70.0,68.0,-100.00,WSW,257,0.0,2.0,95,0.00,,,0.10,0.000000,,2013-07-20 07:54:00,
2013-07-20 04:02:00,70.0,68.0,-100.00,WSW,257,0.0,2.0,95,0.00,,,0.10,0.000000,,2013-07-20 08:02:00,
2013-07-20 04:32:00,69.0,68.0,-100.00,NNW,332,0.0,1.0,96,0.00,,,0.10,0.000000,,2013-07-20 08:32:00,
2013-07-20 04:44:00,69.0,68.0,-100.00,NNW,332,0.0,1.0,96,0.00,,,0.10,0.000000,,2013-07-20 08:44:00,
2013-07-20 04:52:00,69.0,68.0,-100.00,NNW,332,0.0,1.0,96,0.00,,,0.10,0.000000,,2013-07-20 08:52:00,
2013-07-20 05:02:00,69.0,68.0,-100.00,NNW,332,0.0,1.0,96,0.00,,,0.10,0.000000,,2013-07-20 09:02:00,
2013-07-20 05:33:00,68.0,67.0,-100.00,West,273,1.0,2.0,97,0.00,,,0.10,0.000000,,2013-07-20 09:33:00,
2013-07-20 05:43:00,68.0,67.0,-100.00,West,273,1.0,2.0,97,0.00,,,0.10,0.000000,,2013-07-20 09:43:00,
2013-07-20 05:53:00,68.0,67.0,-100.00,West,273,1.0,2.0,97,0.00,,,0.10,0.000000,,2013-07-20 09:53:00,
2013-07-20 06:01:00,68.0,67.0,-100.00,West,273,1.0,2.0,97,0.00,,,0.10,0.000000,,2013-07-20 10:01:00,
2013-07-20 06:32:00,68.0,67.0,-100.00,WNW,289,1.0,2.0,97,0.00,,,0.10,0.000000,,2013-07-20 10:32:00,
2013-07-20 06:42:00,68.0,67.0,-100.00,WNW,289,1.0,2.0,97,0.00,,,0.10,0.000000,,2013-07-20 10:42:00,
2013-07-20 06:52:00,68.0,67.0,-100.00,WNW,289,1.0,2.0,97,0.00,,,0.10,0.000000,,2013-07-20 10:52:00,
2013-07-20 07:02:00,68.0,67.0,-100.00,WNW,289,1.0,2.0,97,0.00,,,0.10,0.000000,,2013-07-20 11:02:00,
2013-07-20 07:43:00,68.0,67.0,-100.00,NNW,344,1.0,2.0,97,0.00,,,0.10,14.000000,,2013-07-20 11:43:00,
2013-07-20 07:52:00,68.0,67.0,-100.00,NNW,344,1.0,2.0,97,0.00,,,0.10,14.000000,,2013-07-20 11:52:00,
2013-07-20 08:01:00,68.0,67.0,-100.00,NNW,344,1.0,2.0,97,0.00,,,0.10,14.000000,,2013-07-20 12:01:00,
2013-07-20 08:52:00,73.0,71.0,-100.00,West,268,1.0,3.0,92,0.00,,,0.10,104.000000,,2013-07-20 12:52:00,
2013-07-20 09:01:00,73.0,71.0,-100.00,West,268,1.0,3.0,92,0.00,,,0.10,104.000000,,2013-07-20 13:01:00,
2013-07-20 09:43:00,81.0,73.0,-100.00,WSW,246,2.0,4.0,76,0.00,,,0.10,315.000000,,2013-07-20 13:43:00,
2013-07-20 09:53:00,81.0,73.0,-100.00,WSW,246,2.0,4.0,76,0.00,,,0.10,315.000000,,2013-07-20 13:53:00,
2013-07-20 10:02:00,81.0,73.0,-100.00,WSW,246,2.0,4.0,76,0.00,,,0.10,315.000000,,2013-07-20 14:02:00,
2013-07-20 10:32:00,84.0,74.0,-100.00,South,184,2.0,4.0,72,0.00,,,0.10,492.000000,,2013-07-20 14:32:00,
2013-07-20 10:43:00,84.0,74.0,-100.00,South,184,2.0,4.0,72,0.00,,,0.10,492.000000,,2013-07-20 14:43:00,
2013-07-20 10:53:00,84.0,74.0,-100.00,South,184,2.0,4.0,72,0.00,,,0.10,492.000000,,2013-07-20 14:53:00,
2013-07-20 11:01:00,84.0,74.0,-100.00,South,184,2.0,4.0,72,0.00,,,0.10,492.000000,,2013-07-20 15:01:00,
2013-07-20 11:33:00,82.0,73.0,-100.00,North,8,1.0,6.0,74,0.00,,,0.10,290.000000,,2013-07-20 15:33:00,
2013-07-20 11:44:00,82.0,73.0,-100.00,North,8,1.0,6.0,74,0.00,,,0.10,290.000000,,2013-07-20 15:44:00,
2013-07-20 11:53:00,82.0,73.0,-100.00,North,8,1.0,6.0,74,0.00,,,0.10,290.000000,,2013-07-20 15:53:00,
2013-07-20 12:01:00,82.0,73.0,-100.00,North,8,1.0,6.0,74,0.00,,,0.10,290.000000,,2013-07-20 16:01:00,
2013-07-20 12:32:00,88.0,76.0,-100.00,WNW,292,2.0,5.0,68,0.00,,,0.10,540.000000,,2013-07-20 16:32:00,
2013-07-20 12:44:00,88.0,76.0,-100.00,WNW,292,2.0,5.0,68,0.00,,,0.10,540.000000,,2013-07-20 16:44:00,
2013-07-20 12:52:00,88.0,76.0,-100.00,WNW,292,2.0,5.0,68,0.00,,,0.10,540.000000,,2013-07-20 16:52:00,
2013-07-20 13:02:00,88.0,76.0,-100.00,WNW,292,2.0,5.0,68,0.00,,,0.10,540.000000,,2013-07-20 17:02:00,
2013-07-20 14:38:00,93.0,71.0,-100.00,WNW,283,2.0,8.0,49,0.00,,,0.10,926.000000,,2013-07-20 18:38:00,
2013-07-20 14:47:00,93.0,71.0,-100.00,WNW,283,2.0,8.0,49,0.00,,,0.10,926.000000,,2013-07-20 18:47:00,
2013-07-20 14:59:00,93.0,71.0,-100.00,WNW,283,2.0,8.0,49,0.00,,,0.10,926.000000,,2013-07-20 18:59:00,
2013-07-20 15:06:00,93.0,71.0,-100.00,WNW,283,2.0,8.0,49,0.00,,,0.10,926.000000,,2013-07-20 19:06:00,
2013-07-20 15:35:00,94.0,69.0,-100.00,North,356,2.0,7.0,45,0.00,,,0.10,1007.000000,,2013-07-20 19:35:00,
2013-07-20 15:44:00,94.0,69.0,-100.00,North,356,2.0,7.0,45,0.00,,,0.10,1007.000000,,2013-07-20 19:44:00,
2013-07-20 16:06:00,94.0,69.0,-100.00,North,356,2.0,7.0,45,0.00,,,0.10,1007.000000,,2013-07-20 20:06:00,
2013-07-20 16:35:00,92.0,74.0,-100.00,NNW,332,2.0,5.0,56,0.00,,,0.10,794.000000,,2013-07-20 20:35:00,
2013-07-20 16:47:00,92.0,74.0,-100.00,NNW,332,2.0,5.0,56,0.00,,,0.10,794.000000,,2013-07-20 20:47:00,
2013-07-20 16:58:00,92.0,74.0,-100.00,NNW,332,2.0,5.0,56,0.00,,,0.10,794.000000,,2013-07-20 20:58:00,
2013-07-20 17:06:00,92.0,74.0,-100.00,NNW,332,2.0,5.0,56,0.00,,,0.10,794.000000,,2013-07-20 21:06:00,
2013-07-20 17:07:00,88.0,72.0,-100.00,North,349,2.0,5.0,60,0.00,,,0.00,532.000000,,2013-07-20 21:07:00,
2013-07-20 17:48:00,88.0,72.0,-100.00,North,349,2.0,5.0,60,0.00,,,0.00,532.000000,,2013-07-20 21:48:00,
2013-07-20 17:57:00,88.0,72.0,-100.00,North,349,2.0,5.0,60,0.00,,,0.00,532.000000,,2013-07-20 21:57:00,
2013-07-20 18:37:00,83.0,72.0,-100.00,ENE,62,1.0,3.0,69,0.00,,,0.00,147.000000,,2013-07-20 22:37:00,
2013-07-20 18:50:00,83.0,72.0,-100.00,ENE,62,1.0,3.0,69,0.00,,,0.00,147.000000,,2013-07-20 22:50:00,
2013-07-20 18:57:00,83.0,72.0,-100.00,ENE,62,1.0,3.0,69,0.00,,,0.00,147.000000,,2013-07-20 22:57:00,
2013-07-20 19:05:00,83.0,72.0,-100.00,ENE,62,1.0,3.0,69,0.00,,,0.00,147.000000,,2013-07-20 23:05:00,
2013-07-20 19:07:00,83.0,73.0,-100.00,North,6,1.0,5.0,73,0.00,,,0.00,158.000000,,2013-07-20 23:07:00,
2013-07-20 19:40:00,83.0,73.0,-100.00,North,6,1.0,5.0,73,0.00,,,0.00,158.000000,,2013-07-20 23:40:00,
2013-07-20 19:46:00,83.0,73.0,-100.00,North,6,1.0,5.0,73,0.00,,,0.00,158.000000,,2013-07-20 23:46:00,
2013-07-20 19:57:00,83.0,73.0,-100.00,North,6,1.0,5.0,73,0.00,,,0.00,158.000000,,2013-07-20 23:57:00,
2013-07-20 20:45:00,79.0,73.0,-100.00,NNE,13,1.0,3.0,81,0.00,,,0.00,46.000000,,2013-07-21 00:45:00,
2013-07-20 20:56:00,79.0,73.0,-100.00,NNE,13,1.0,3.0,81,0.00,,,0.00,46.000000,,2013-07-21 00:56:00,
2013-07-20 21:06:00,79.0,73.0,-100.00,NNE,13,1.0,3.0,81,0.00,,,0.00,46.000000,,2013-07-21 01:06:00,
2013-07-20 21:37:00,76.0,71.0,-100.00,NNE,20,1.0,2.0,84,0.00,,,0.00,4.000000,,2013-07-21 01:37:00,
2013-07-20 21:49:00,-999.0,-99.9,-100.00,NNE,20,1.0,2.0,-999,-99.99,,,-99.99,4.000000,,2013-07-21 01:49:00,
2013-07-20 21:59:00,76.0,71.0,-100.00,NNE,20,1.0,2.0,84,0.00,,,0.00,4.000000,,2013-07-21 01:59:00,
2013-07-20 22:06:00,76.0,71.0,-100.00,NNE,20,1.0,2.0,84,0.00,,,0.00,4.000000,,2013-07-21 02:06:00,
2013-07-20 22:38:00,74.0,70.0,-100.00,NNE,17,1.0,3.0,87,0.00,,,0.00,0.000000,,2013-07-21 02:38:00,
2013-07-20 22:47:00,74.0,70.0,-100.00,NNE,17,1.0,3.0,87,0.00,,,0.00,0.000000,,2013-07-21 02:47:00,
2013-07-20 22:58:00,74.0,70.0,-100.00,NNE,17,1.0,3.0,87,0.00,,,0.00,0.000000,,2013-07-21 02:58:00,
2013-07-20 23:05:00,74.0,70.0,-100.00,NNE,17,1.0,3.0,87,0.00,,,0.00,0.000000,,2013-07-21 03:05:00,
2013-07-20 23:37:00,73.0,71.0,-100.00,WNW,291,0.0,2.0,92,0.00,,,0.00,0.000000,,2013-07-21 03:37:00,
2013-07-20 23:47:00,73.0,71.0,-100.00,WNW,291,0.0,2.0,92,0.00,,,0.00,0.000000,,2013-07-21 03:47:00,